COSMOS 1275 DEB, 39958

Orbit data source: Space-Track

COSMOS 1275 DEB, 39958 is space debris in LEO originally from a launch on Thu, 04 Jun 1981 UTC launched from the Plesetsk Missile And Space Complex (PKMTR). Debris objects in space refer to the collection of defunct objects orbiting the Earth. Examples of debris include non-operational satellites, rocket bodies, and fragments generated from explosions, collisions, or faulty payload assembly.

Loading next visibility...
Identifier
39958, 1981-053NU
Orbit
LEO
Country
Flag of CISCIS
Related business
Manufacturer
Unknown
Mission
Spacecraft
Bus & Motor
Unknown
Mass
Unknown
Launch date (UTC)
1981-06-04 (45 years ago)
Launch vehicle
Unknown
Launch site
Plesetsk Missile And Space Complex (PKMTR)
Object type
Payload
Rocket body
Debris
Shape & HBR
Unknown shape, 0.1 m
Radar Cross Section
Small (<0.1 m²)

Expand to show TLE details & history
Last TLE update: 2 days ago

TLE from 2 days ago
0 COSMOS 1275 DEB
1 39958U 81053NU  26036.52041847  .00000664  00000-0  66645-3 0  9995
2 39958  83.0230 310.3714 0088572 102.4413  16.5921 13.74406680584635
Epoch: 2026-02-05T12:29Z
TLE epoch observation values (Epoch: 2026-02-05T12:29:24.155Z)
Latitude
60.02131°
Longitude
155.1663°
Altitude
931.548 km
Speed
7.423 km/s
True Right ascension
07h 52m 45s
True Declination
59° 52' 33"
Sunlit
Object was in full shadow at epoch
Visualization orbit readout
Latitude
Unknown
Longitude
Unknown
Altitude
Unknown
Speed
Unknown
Apparent Right ascension
Unknown
Apparent Declination
Unknown
Sunlit
N/A
Visualization observer readout
Local Sidereal Time
14:19:36
Azimuth
Unknown
Elevation
Unknown
Doppler factor
Unknown
Orbital elements
Apogee altitude
1,046.12 km
Perigee altitude
915.758 km
Semi-major axis
7,359.076 km
Eccentricity
0.00886
Inclination
83.023°
RAAN
310.3714°
Arg. of periapsis
102.4413°
True anomaly
16.88503°
Mean anomaly
16.5921°
Eccentric anomaly
16.73825°
Mean motion
3.43802 °/min
Orbital period
104.71 mins
BSTAR
0.00066645
Loading maneuver chart data...
Computing Atmospheric mass density...
Loading historical data...
Loading historical data...
Loading historical data...
Loading historical data...
Loading historical data...
Loading historical data...
Loading historical data...

Documentation

Showing up to 5 results
|